Regional Weather Roundup
Issued by NWS

Home | Current Version | Previous Version | Graphics & Text | Print | Product List | Glossary On
Versions: 1 2 3 4 5 6 7 8 9 10 11 12 13 14 15 16 17 18 19 20 21 22 23 24 25 26 27 28 29 30 31 32 33 34 35 36 37 38 39 40 41 42 43 44 45 46 47 48 49 50
000
ASUS43 KLOT 311106
RWRIL

ILLINOIS REGIONAL WEATHER ROUNDUP
NATIONAL WEATHER SERVICE CHICAGO/ROMEOVILLE IL
500 AM CST SAT JAN 31 2015

NOTE: "FAIR" INDICATES FEW OR NO CLOUDS BELOW 12,000 FEET WITH NO
SIGNIFICANT WEATHER AND/OR OBSTRUCTIONS TO VISIBILITY.

* THESE STATIONS ARE NOT UNDER NWS QUALITY CONTROL. THEY ALSO MAY NOT
  REPORT WEATHER SUCH AS PRECIPITATION OR FOG.

ILZ001-002-007-009-015-016-024-311200-
NORTHWEST ILLINOIS

CITY           SKY/WX    TMP DP  RH WIND       PRES   REMARKS
MOLINE         FAIR      26  18  71 SW7       30.23F WCI  18
STERLING*      CLEAR     23  18  80 SW3       30.24F
SAVANNA*       CLEAR     20  17  87 CALM      30.22F
$$

ILZ003-004-008-010-011-017-018-311200-
NORTH CENTRAL ILLINOIS

CITY           SKY/WX    TMP DP  RH WIND       PRES   REMARKS
ROCKFORD       PTCLDY    21  15  78 S7        30.23F WCI  12
FREEPORT*      CLEAR     23  17  78 SW15      30.21F WCI  10
ROCHELLE*      CLEAR     19  16  86 S10       30.24S WCI   8
DE KALB*       CLEAR     18  15  89 S9        30.23F WCI   6
PERU*          CLEAR     25  20  83 SW9       30.27F WCI  15
$$

ILZ005-006-012>014-019>023-311200-
NORTHEAST ILLINOIS

CITY           SKY/WX    TMP DP  RH WIND       PRES   REMARKS
CHICAGO-OHARE  MOCLDY    25  18  74 SW8       30.24F WCI  16
CHICAGO-MIDWAY CLOUDY    28  21  75 SW8       30.26F WCI  20
AURORA         CLEAR     22  17  81 S7        30.25F WCI  13
LANSING*       PTCLDY    25  21  84 SW8       30.28F WCI  17
JOLIET*        CLEAR     23  20  88 S5        30.27F WCI  17
WAUKEGAN       CLEAR     20  15  81 SW7       30.22F WCI  11
DUPAGE AIRPORT CLEAR     22  17  81 SW8       30.24F WCI  12
KANKAKEE*      MOCLDY    24  21  90 SW7       30.30F WCI  16
WHEELING       PTCLDY    25  17  72 S6        30.26F WCI  18
MORRIS*        CLEAR     23  20  91 S5        30.26F WCI  16
ROMEOVILLE*    CLEAR     22  19  89 SW7       30.26F WCI  14
NORTHERLY ISL    N/A     28  20  71 SW2         N/A
$$

LMZ740>746-311200-
SOUTHERN LAKE MICHIGAN

STATION/POSITION SKY/WX   TEMP    WIND        PRES    VSBY  WAVE
                          AIR SEA DIR/SP/G                  HT/PER
                          (F)     (DEG/KT/KT) (MB)    (MI)  (FT/S)
WAUKEGAN HARBOR            25     220/  8/ 11   N/A
HARRISON CRIB              28     200/ 14/ 17   N/A
BURNHAM HARBOR             28     240/  5/  8   N/A
CALUMET HARBOR             27     210/  8/ 11   N/A
MICHIGAN CITY              24     160/  8/ 11   N/A
$$

ILZ025>027-034>036-040-047-049-050-058-095>099-311200-
WEST-CENTRAL ILLINOIS

CITY           SKY/WX    TMP DP  RH WIND       PRES   REMARKS
QUINCY         MOCLDY    28  21  75 SW10      30.27F WCI  19
GALESBURG*     MOCLDY    25  21  86 S6        30.26F WCI  18
MACOMB*        CLOUDY    27  22  79 SW8       30.30F WCI  19
JACKSONVILLE*  MOCLDY    30  22  73 S8        30.30F WCI  22
PITTSFIELD*    MOCLDY    30  22  72 S7        30.30F WCI  23
$$

ILZ028>032-037-038-041>044-048-051>054-059>061-311200-
CENTRAL ILLINOIS

CITY           SKY/WX    TMP DP  RH WIND       PRES   REMARKS
PONTIAC        PTCLDY    26  22  87 SW6       30.30S WCI  19
BLOOMINGTON    MOCLDY    27  23  84 SW10      30.30S WCI  17
DECATUR        CLOUDY    28  22  78 SW8       30.32S WCI  20
PEORIA         PTCLDY    25  19  78 SW6       30.29F WCI  18
LACON*         CLEAR     24  19  82 SW3       30.28S
LINCOLN*       PTCLDY    28  24  82 S3        30.32F
SPRINGFIELD    PTCLDY    28  21  75 SW7       30.31F WCI  21
TAYLORVILLE    MOCLDY    28  23  80 S10       30.32F WCI  19
$$

ILZ033-039-045-046-055>057-062-063-311200-
EAST-CENTRAL ILLINOIS

CITY           SKY/WX    TMP DP  RH WIND       PRES   REMARKS
CHAMPAIGN      CLOUDY    26  21  81 SW9       30.31F WCI  17
DANVILLE*      PTCLDY    23  18  83 SW6       30.29F WCI  15
RANTOUL*       CLOUDY    27  23  83 S5        30.31S WCI  22
MATTOON        PTCLDY    25  19  78 S8        30.32S WCI  16
PARIS*         CLEAR     23  20  88 CALM      30.34S
$$

ILZ079-100>102-311200-
SOUTHWEST ILLINOIS

CITY           SKY/WX    TMP DP  RH WIND       PRES   REMARKS
ALTON          MOCLDY    29  22  76 CALM      30.34F
BELLEVILLE     MOCLDY    26  25  96 CALM      30.34F
CAHOKIA*       MOCLDY    31  22  69 S3        30.34F
SPARTA*        CLOUDY    31  21  67 S7        30.36F WCI  24
$$

ILZ064>066-069>071-074>076-080>082-084>086-088>090-092>094-311200-
SOUTH-CENTRAL ILLINOIS

CITY           SKY/WX    TMP DP  RH WIND       PRES   REMARKS
CARBONDALE     CLOUDY    26  22  84 CALM      30.37F
CAIRO*         PTCLDY    31  27  87 CALM      30.38S
EFFINGHAM*     MOCLDY    27  19  70 S3        30.36S
MARION         CLOUDY    30  23  74 S3        30.37F
MT. VERNON     MOCLDY    21  18  86 CALM      30.37S
CENTRALIA*     MOCLDY    26  22  82 S3        30.36S
SALEM*         MOCLDY    29  23  77 S3        30.35S
METROPOLIS*    PTCLDY    25  25  99 CALM      30.37F
$$

ILZ067-068-072-073-078-083-087-091-311200-
SOUTHEAST ILLINOIS

CITY           SKY/WX    TMP DP  RH WIND       PRES   REMARKS
LAWRENCEVILLE  PTCLDY    22  20  92 S5        30.37F WCI  16
FLORA*         PTCLDY    24  22  91 S3        30.37S
FAIRFIELD*     MOCLDY    27  22  80 CALM      30.36S
HARRISBURG*    MOCLDY    26  25  96 CALM      30.39S
ROBINSON*      PTCLDY    23  20  89 CALM      30.37F
CARMI*         MOCLDY    25  24  97 CALM      30.37F
$$

ABBREVIATIONS USED IN REMARKS
   TC - TEMPERATURE IN CELSIUS
  WCI - WIND CHILL INDEX
   HX - HEAT INDEX
  VSB - VISIBILITY
$$



USA.gov is the U.S. government's official web portal to all federal, state and local government web resources and services.